Total_Precipitation_Accumulation
0.75 0.91 0.87 0.71 0.64 0.63 0.63 0.74 0.98 0.99 0.97 1.06 1.22 1.34 1.28 1.26 1.25 1.14 0.95 0.79 0.66 0.57 0.53 0.51 0.52 0.54 0.57 0.60 0.64 0.75 0.87 0.91 0.98 1.13 1.35 1.60 1.82 2.03
0.81 0.88 0.93 0.91 0.83 0.79 0.77 0.82 0.99 1.06 1.11 1.14 1.32 1.38 1.23 1.05 1.08 1.11 0.98 0.89 0.73 0.61 0.54 0.53 0.54 0.53 0.50 0.51 0.48 0.49 0.52 0.56 0.62 0.70 0.79 0.91 1.08 1.35
0.99 0.98 0.98 1.05 1.11 1.03 1.00 1.01 1.07 1.19 1.25 1.23 1.34 1.35 1.22 1.02 0.97 1.00 0.97 0.97 0.83 0.75 0.62 0.56 0.54 0.52 0.50 0.49 0.50 0.48 0.46 0.45 0.45 0.48 0.52 0.55 0.60 0.65
1.10 1.24 1.25 1.19 1.17 1.10 1.12 1.14 1.23 1.40 1.44 1.40 1.40 1.42 1.33 1.19 1.09 0.98 0.86 0.82 0.82 0.84 0.71 0.61 0.55 0.52 0.49 0.47 0.47 0.45 0.45 0.43 0.40 0.36 0.36 0.38 0.41 0.46
0.98 1.24 1.44 1.59 1.49 1.30 1.19 1.15 1.23 1.34 1.50 1.44 1.41 1.53 1.51 1.37 1.23 1.03 0.90 0.86 0.73 0.76 0.77 0.69 0.59 0.54 0.52 0.50 0.49 0.48 0.45 0.43 0.41 0.40 0.37 0.36 0.36 0.37
0.91 1.00 1.13 1.33 1.49 1.54 1.39 1.26 1.24 1.35 1.50 1.52 1.60 1.81 1.81 1.63 1.36 1.15 1.04 0.92 0.80 0.65 0.67 0.68 0.63 0.56 0.53 0.52 0.50 0.47 0.46 0.45 0.44 0.43 0.41 0.40 0.37 0.35
0.98 0.96 0.92 1.00 1.13 1.27 1.32 1.40 1.39 1.37 1.46 1.53 1.73 2.12 2.10 1.80 1.42 1.21 1.16 1.08 0.92 0.77 0.71 0.61 0.57 0.53 0.52 0.54 0.53 0.50 0.44 0.41 0.39 0.38 0.40 0.40 0.39 0.38
1.14 1.07 0.98 0.90 0.91 0.98 1.05 1.14 1.29 1.34 1.36 1.43 1.60 1.90 2.06 1.93 1.66 1.43 1.23 1.10 0.99 0.90 0.84 0.78 0.67 0.62 0.55 0.49 0.52 0.50 0.46 0.41 0.37 0.35 0.33 0.34 0.36 0.35
1.32 1.32 1.09 0.90 0.94 0.91 0.98 1.00 1.02 1.12 1.23 1.33 1.48 1.68 1.96 2.08 1.92 1.53 1.35 1.22 1.02 0.90 0.89 0.87 0.78 0.69 0.59 0.55 0.58 0.48 0.46 0.44 0.39 0.35 0.33 0.31 0.30 0.31
1.14 1.15 1.11 0.98 0.91 0.90 0.92 0.90 0.86 0.87 0.93 1.01 1.15 1.38 1.67 2.00 2.14 1.87 1.65 1.47 1.24 1.07 0.91 0.89 0.86 0.77 0.64 0.57 0.61 0.53 0.44 0.42 0.41 0.36 0.34 0.33 0.33 0.31
0.93 0.96 0.99 0.92 0.87 0.73 0.74 0.77 0.76 0.74 0.73 0.77 0.85 1.01 1.26 1.56 1.88 2.00 1.72 1.38 1.22 1.04 0.89 0.80 0.75 0.78 0.75 0.62 0.59 0.61 0.52 0.45 0.43 0.42 0.39 0.37 0.34 0.34
1.04 1.07 1.03 0.91 0.81 0.64 0.64 0.70 0.69 0.66 0.69 0.68 0.67 0.72 0.84 1.08 1.43 1.60 1.61 1.34 1.10 0.98 0.74 0.66 0.63 0.65 0.70 0.61 0.48 0.47 0.47 0.50 0.49 0.44 0.42 0.41 0.40 0.30
1.12 1.20 1.14 0.96 0.73 0.59 0.54 0.55 0.52 0.54 0.59 0.63 0.63 0.67 0.79 0.95 1.10 1.31 1.45 1.37 1.13 0.86 0.69 0.64 0.57 0.58 0.59 0.55 0.51 0.46 0.43 0.43 0.44 0.46 0.46 0.46 0.47 0.40
0.99 1.13 1.14 0.97 0.76 0.60 0.50 0.44 0.41 0.38 0.43 0.50 0.53 0.55 0.61 0.73 0.91 1.16 1.37 1.38 1.23 1.00 0.82 0.79 0.72 0.63 0.57 0.51 0.46 0.45 0.45 0.43 0.42 0.41 0.42 0.50 0.49 0.50
0.78 1.03 1.11 0.99 0.86 0.71 0.62 0.55 0.45 0.38 0.40 0.43 0.41 0.41 0.45 0.56 0.77 1.10 1.45 1.57 1.47 1.22 1.04 0.89 0.80 0.76 0.74 0.60 0.45 0.40 0.42 0.43 0.40 0.41 0.44 0.47 0.47 0.47
0.71 0.86 0.99 1.02 0.92 0.85 0.75 0.61 0.49 0.44 0.42 0.43 0.43 0.46 0.54 0.65 0.77 0.92 1.24 1.48 1.51 1.33 1.13 1.00 0.90 0.88 0.82 0.69 0.55 0.41 0.35 0.38 0.39 0.40 0.46 0.48 0.51 0.51
0.71 0.80 0.93 1.03 1.04 1.00 0.96 0.85 0.73 0.66 0.59 0.56 0.61 0.62 0.67 0.72 0.74 0.83 1.04 1.23 1.24 1.11 1.01 0.99 0.98 0.95 0.89 0.85 0.72 0.48 0.38 0.34 0.34 0.42 0.51 0.52 0.52 0.58
0.52 0.67 0.84 1.00 1.12 1.17 1.19 1.13 1.01 0.91 0.81 0.78 0.79 0.76 0.74 0.77 0.78 0.80 0.93 1.08 1.08 1.03 0.97 0.91 0.98 1.08 1.02 0.85 0.70 0.57 0.45 0.38 0.39 0.48 0.55 0.56 0.52 0.53
0.36 0.53 0.69 0.83 1.00 1.13 1.17 1.13 1.04 1.01 1.01 1.00 0.98 0.94 0.87 0.85 0.88 0.86 0.87 0.99 1.06 1.02 1.03 1.00 0.99 1.00 0.97 0.73 0.52 0.49 0.53 0.50 0.53 0.56 0.59 0.58 0.51 0.50
0.31 0.47 0.60 0.74 0.88 1.05 1.09 1.08 1.10 1.12 1.12 1.08 1.09 1.09 1.06 0.99 0.99 0.96 0.92 0.93 1.02 1.09 1.09 1.07 0.99 0.90 0.82 0.73 0.63 0.52 0.51 0.63 0.68 0.65 0.65 0.67 0.60 0.59
0.39 0.45 0.52 0.63 0.80 0.97 1.10 1.14 1.17 1.16 1.15 1.17 1.17 1.17 1.19 1.13 1.02 1.01 1.05 1.03 1.01 1.07 1.01 0.89 0.87 0.97 1.04 1.07 0.92 0.65 0.53 0.55 0.66 0.72 0.76 0.83 0.76 0.70
0.53 0.58 0.60 0.67 0.84 1.01 1.13 1.23 1.27 1.24 1.19 1.20 1.21 1.21 1.20 1.18 1.08 1.06 1.14 1.12 1.00 0.93 0.93 0.96 1.12 1.26 1.24 1.13 0.88 0.69 0.63 0.65 0.68 0.72 0.76 0.80 0.80 0.70
0.67 0.64 0.59 0.63 0.79 0.96 1.06 1.18 1.27 1.25 1.19 1.16 1.22 1.26 1.19 1.14 1.09 1.11 1.14 1.19 1.14 1.07 1.10 1.14 1.19 1.23 1.19 1.15 1.06 0.90 0.76 0.75 0.77 0.72 0.61 0.57 0.56 0.55